KAL762 RJOB-RKSS

Flight info

Callsign KAL762
Flight time 1h 11m
Altitude 30000
Route OYE Y39 MIHOU Y38 SAPRA G585 GUKDO GUKDO2T
Aircraft MD82/M-SDFGIRWY/S

Departure

Time 2026-04-25 09:03
Airport Okayama Momotaro Airport (RJOB)

Arrival

Time 2026-04-25 10:14
Airport Gimpo International Airport (RKSS)
Time Latitude Longitude Altitude Speed Heading
2026-04-25 08:31 34.75935 133.85325 798 ft 0 kts 329°
2026-04-25 08:53 34.75931 133.85329 797 ft 2 kts 329°
2026-04-25 08:54 34.75917 133.85339 797 ft 2 kts 329°
2026-04-25 08:54 34.75907 133.85346 797 ft 2 kts 329°
2026-04-25 08:54 34.75893 133.85356 797 ft 2 kts 329°
2026-04-25 08:54 34.75879 133.85366 796 ft 2 kts 329°
2026-04-25 08:55 34.75865 133.85377 796 ft 2 kts 324°
2026-04-25 08:55 34.75853 133.85390 796 ft 2 kts 305°
2026-04-25 08:55 34.75843 133.85418 795 ft 3 kts 288°
2026-04-25 08:55 34.75841 133.85441 795 ft 3 kts 256°
2026-04-25 08:56 34.75845 133.85454 795 ft 0 kts 240°
2026-04-25 08:58 34.75842 133.85447 795 ft 4 kts 238°
2026-04-25 08:58 34.75812 133.85391 795 ft 10 kts 238°
2026-04-25 08:58 34.75776 133.85319 795 ft 10 kts 239°
2026-04-25 08:59 34.75740 133.85246 796 ft 9 kts 239°
2026-04-25 08:59 34.75710 133.85184 799 ft 9 kts 239°
2026-04-25 08:59 34.75667 133.85093 802 ft 15 kts 239°
2026-04-25 08:59 34.75601 133.84962 805 ft 21 kts 239°
2026-04-25 09:00 34.75519 133.84795 809 ft 25 kts 239°
2026-04-25 09:00 34.75433 133.84622 812 ft 23 kts 239°
2026-04-25 09:00 34.75357 133.84464 815 ft 21 kts 239°
2026-04-25 09:00 34.75281 133.84312 813 ft 21 kts 238°
2026-04-25 09:01 34.75204 133.84158 812 ft 20 kts 240°
2026-04-25 09:01 34.75129 133.84075 810 ft 13 kts 176°
2026-04-25 09:01 34.75058 133.84111 813 ft 11 kts 150°
2026-04-25 09:01 34.75022 133.84167 813 ft 7 kts 84°
2026-04-25 09:02 34.75028 133.84184 812 ft 0 kts 61°
2026-04-25 09:02 34.75130 133.84399 812 ft 56 kts 60°
2026-04-25 09:02 34.75440 133.85031 805 ft 117 kts 59°
2026-04-25 09:03 34.75944 133.86053 798 ft 167 kts 60°
2026-04-25 09:03 34.76583 133.87304 1317 ft 174 kts 60°
2026-04-25 09:03 34.77178 133.88511 2122 ft 163 kts 63°
2026-04-25 09:03 34.77756 133.89764 2524 ft 177 kts 64°
2026-04-25 09:04 34.78346 133.91115 3047 ft 186 kts 65°
2026-04-25 09:04 34.78948 133.92588 3465 ft 203 kts 66°
2026-04-25 09:04 34.79588 133.94209 3835 ft 221 kts 66°
2026-04-25 09:04 34.80260 133.95982 4158 ft 240 kts 67°
2026-04-25 09:05 34.80985 133.97881 4628 ft 253 kts 66°
2026-04-25 09:05 34.81761 133.99857 5114 ft 263 kts 67°
2026-04-25 09:05 34.82141 134.02001 5860 ft 260 kts 95°
2026-04-25 09:05 34.81623 134.04140 6306 ft 275 kts 121°
2026-04-25 09:06 34.80249 134.05767 6867 ft 281 kts 151°
2026-04-25 09:06 34.78384 134.06357 7713 ft 279 kts 179°
2026-04-25 09:06 34.76475 134.05858 8341 ft 289 kts 205°
2026-04-25 09:06 34.74903 134.04333 9010 ft 291 kts 233°
2026-04-25 09:07 34.74062 134.02120 9696 ft 294 kts 260°
2026-04-25 09:07 34.74052 133.99617 10215 ft 300 kts 278°
2026-04-25 09:07 34.74354 133.97081 10617 ft 311 kts 279°
2026-04-25 09:07 34.74656 133.94408 10834 ft 327 kts 277°
2026-04-25 09:08 34.74880 133.91591 11058 ft 343 kts 275°
2026-04-25 09:08 34.75024 133.88633 11294 ft 357 kts 273°
2026-04-25 09:08 34.75234 133.85604 11718 ft 364 kts 284°
2026-04-25 09:08 34.76248 133.82796 12331 ft 364 kts 307°
2026-04-25 09:09 34.77991 133.80603 13054 ft 360 kts 320°
2026-04-25 09:09 34.79934 133.78679 13722 ft 361 kts 322°
2026-04-25 09:09 34.81929 133.76813 14237 ft 364 kts 322°
2026-04-25 09:09 34.83971 133.74962 14744 ft 366 kts 323°
2026-04-25 09:10 34.86031 133.73119 15268 ft 368 kts 322°
2026-04-25 09:10 34.88089 133.71262 15803 ft 370 kts 322°
2026-04-25 09:10 34.90154 133.69370 16327 ft 372 kts 322°
2026-04-25 09:10 34.92212 133.67454 16843 ft 374 kts 321°
2026-04-25 09:11 34.96335 133.63558 17824 ft 380 kts 321°
2026-04-25 09:11 34.98424 133.61578 18309 ft 383 kts 321°
2026-04-25 09:11 35.00536 133.59574 18735 ft 386 kts 320°
2026-04-25 09:12 35.02635 133.57581 19160 ft 388 kts 320°
2026-04-25 09:12 35.04435 133.55871 19520 ft 390 kts 320°
2026-04-25 09:12 35.04506 133.55804 19547 ft 390 kts 320°
2026-04-25 09:13 35.05142 133.55199 19668 ft 391 kts 320°
2026-04-25 09:14 35.07325 133.53123 20112 ft 393 kts 320°
2026-04-25 09:14 35.09451 133.51100 20611 ft 394 kts 320°
2026-04-25 09:14 35.11619 133.49038 21101 ft 395 kts 319°
2026-04-25 09:14 35.13789 133.46977 21563 ft 397 kts 319°
2026-04-25 09:15 35.15980 133.44895 22007 ft 399 kts 319°
2026-04-25 09:15 35.18203 133.42781 22465 ft 401 kts 319°
2026-04-25 09:15 35.20383 133.40706 22915 ft 403 kts 318°
2026-04-25 09:15 35.22605 133.38592 23341 ft 405 kts 318°
2026-04-25 09:16 35.24828 133.36474 23771 ft 407 kts 318°
2026-04-25 09:16 35.27067 133.34339 24139 ft 408 kts 318°
2026-04-25 09:16 35.29347 133.32163 24480 ft 411 kts 317°
2026-04-25 09:16 35.31571 133.30040 24821 ft 412 kts 317°
2026-04-25 09:17 35.36144 133.25670 25512 ft 416 kts 317°
2026-04-25 09:17 35.38397 133.23511 25887 ft 417 kts 317°
2026-04-25 09:17 35.40689 133.21312 26235 ft 419 kts 317°
2026-04-25 09:18 35.43023 133.19072 26544 ft 421 kts 317°
2026-04-25 09:18 35.45302 133.16885 26879 ft 423 kts 317°
2026-04-25 09:18 35.47620 133.14662 27209 ft 425 kts 317°
2026-04-25 09:18 35.49957 133.12422 27518 ft 427 kts 316°
2026-04-25 09:19 35.52072 133.09904 27785 ft 420 kts 301°
2026-04-25 09:19 35.53385 133.06768 28120 ft 412 kts 283°
2026-04-25 09:19 35.54024 133.03349 28521 ft 409 kts 277°
2026-04-25 09:19 35.54472 132.99914 28931 ft 408 kts 276°
2026-04-25 09:20 35.54865 132.96474 29418 ft 405 kts 275°
2026-04-25 09:20 35.55235 132.93047 29813 ft 405 kts 275°
2026-04-25 09:20 35.55605 132.89625 29974 ft 405 kts 275°
2026-04-25 09:21 35.56395 132.82779 30083 ft 404 kts 275°
2026-04-25 09:21 35.57238 132.75979 30098 ft 402 kts 276°
2026-04-25 09:22 35.58093 132.69219 30111 ft 400 kts 276°
2026-04-25 09:22 35.58966 132.62461 30110 ft 402 kts 276°
2026-04-25 09:23 35.59861 132.55663 30122 ft 403 kts 276°
2026-04-25 09:23 35.60671 132.49470 30115 ft 405 kts 276°
2026-04-25 09:24 35.61555 132.42671 30119 ft 405 kts 276°
2026-04-25 09:24 35.62446 132.35799 30124 ft 404 kts 276°
2026-04-25 09:25 35.63328 132.28990 30115 ft 403 kts 276°
2026-04-25 09:25 35.64200 132.22252 30120 ft 405 kts 276°
2026-04-25 09:26 35.65084 132.15390 30113 ft 407 kts 276°
2026-04-25 09:26 35.65937 132.08556 30118 ft 408 kts 275°
2026-04-25 09:27 35.66795 132.01656 30117 ft 408 kts 275°
2026-04-25 09:27 35.67656 131.94768 30115 ft 407 kts 275°
2026-04-25 09:28 35.68520 131.87876 30119 ft 407 kts 276°
2026-04-25 09:28 35.69377 131.81034 30121 ft 407 kts 275°
2026-04-25 09:29 35.70241 131.74139 30116 ft 409 kts 275°
2026-04-25 09:29 35.71106 131.67226 30114 ft 410 kts 275°
2026-04-25 09:30 35.71951 131.60291 30118 ft 410 kts 275°
2026-04-25 09:30 35.72785 131.53328 30121 ft 411 kts 275°
2026-04-25 09:31 35.73622 131.46368 30120 ft 411 kts 275°
2026-04-25 09:31 35.74456 131.39473 30118 ft 410 kts 275°
2026-04-25 09:32 35.75188 131.33428 30119 ft 410 kts 275°
2026-04-25 09:32 35.76029 131.26474 30122 ft 411 kts 275°
2026-04-25 09:33 35.76872 131.19499 30118 ft 412 kts 275°
2026-04-25 09:33 35.77649 131.12492 30121 ft 413 kts 273°
2026-04-25 09:34 35.78345 131.05472 30119 ft 414 kts 274°
2026-04-25 09:34 35.79151 130.98444 30120 ft 415 kts 275°
2026-04-25 09:35 35.80020 130.91429 30116 ft 414 kts 275°
2026-04-25 09:35 35.80898 130.84429 30119 ft 413 kts 275°
2026-04-25 09:36 35.81765 130.77424 30120 ft 413 kts 275°
2026-04-25 09:36 35.82607 130.70543 30108 ft 414 kts 275°
2026-04-25 09:37 35.83462 130.63527 30111 ft 415 kts 275°
2026-04-25 09:37 35.84337 130.56533 30112 ft 416 kts 275°
2026-04-25 09:38 35.85238 130.49453 30117 ft 416 kts 275°
2026-04-25 09:38 35.86131 130.42441 30123 ft 417 kts 275°
2026-04-25 09:39 35.87025 130.35387 30107 ft 416 kts 275°
2026-04-25 09:39 35.87915 130.28341 30108 ft 416 kts 275°
2026-04-25 09:40 35.89234 130.17784 30114 ft 415 kts 275°
2026-04-25 09:40 35.90026 130.10994 30118 ft 415 kts 275°
2026-04-25 09:41 35.90874 130.03940 30112 ft 416 kts 275°
2026-04-25 09:41 35.91608 129.98016 30113 ft 417 kts 275°
2026-04-25 09:42 35.92494 129.90942 30116 ft 418 kts 275°
2026-04-25 09:42 35.93372 129.83901 30109 ft 418 kts 275°
2026-04-25 09:43 35.94226 129.76814 30103 ft 417 kts 275°
2026-04-25 09:43 35.95057 129.69733 30113 ft 416 kts 275°
2026-04-25 09:44 35.95812 129.63339 30103 ft 416 kts 275°
2026-04-25 09:44 35.96615 129.56600 30102 ft 417 kts 275°
2026-04-25 09:45 35.97472 129.49510 30102 ft 418 kts 278°
2026-04-25 09:45 35.98424 129.46107 30114 ft 427 kts 295°
2026-04-25 09:45 36.00037 129.42997 30107 ft 432 kts 301°
2026-04-25 09:46 36.03614 129.37014 30098 ft 433 kts 302°
2026-04-25 09:46 36.07211 129.31038 30099 ft 432 kts 301°
2026-04-25 09:47 36.10729 129.25022 30099 ft 431 kts 301°
2026-04-25 09:47 36.14190 129.18981 30097 ft 430 kts 300°
2026-04-25 09:48 36.17644 129.12936 30094 ft 430 kts 300°
2026-04-25 09:48 36.21105 129.06888 30090 ft 431 kts 301°
2026-04-25 09:49 36.24572 129.00822 30084 ft 431 kts 300°
2026-04-25 09:49 36.28021 128.94761 30079 ft 430 kts 301°
2026-04-25 09:50 36.31473 128.88705 30075 ft 431 kts 301°
2026-04-25 09:50 36.34952 128.82607 30076 ft 433 kts 300°
2026-04-25 09:51 36.38404 128.76495 30068 ft 432 kts 301°
2026-04-25 09:51 36.41847 128.70400 30062 ft 430 kts 301°
2026-04-25 09:52 36.45284 128.64326 30060 ft 429 kts 301°
2026-04-25 09:52 36.48723 128.58244 30057 ft 431 kts 301°
2026-04-25 09:53 36.52166 128.52152 30048 ft 432 kts 301°
2026-04-25 09:53 36.55623 128.46031 30043 ft 432 kts 301°
2026-04-25 09:54 36.59073 128.39910 30050 ft 432 kts 301°
2026-04-25 09:54 36.62510 128.33787 30041 ft 431 kts 301°
2026-04-25 09:55 36.65948 128.27682 30055 ft 431 kts 301°
2026-04-25 09:55 36.69418 128.21593 30047 ft 431 kts 301°
2026-04-25 09:56 36.72899 128.15491 30037 ft 432 kts 301°
2026-04-25 09:56 36.76379 128.09362 30044 ft 433 kts 301°
2026-04-25 09:57 36.78120 128.06292 29827 ft 436 kts 301°
2026-04-25 09:57 36.79870 128.03199 29228 ft 437 kts 302°
2026-04-25 09:57 36.81615 128.00119 28608 ft 431 kts 302°
2026-04-25 09:57 36.83331 127.97094 28026 ft 424 kts 302°
2026-04-25 09:58 36.85026 127.94099 27428 ft 419 kts 302°
2026-04-25 09:58 36.86688 127.91146 26862 ft 414 kts 302°
2026-04-25 09:58 36.88334 127.88221 26300 ft 410 kts 302°
2026-04-25 09:58 36.89970 127.85307 25751 ft 407 kts 302°
2026-04-25 09:59 36.91590 127.82422 25213 ft 406 kts 302°
2026-04-25 09:59 36.93208 127.79543 24686 ft 404 kts 303°
2026-04-25 09:59 36.94802 127.76700 24144 ft 403 kts 303°
2026-04-25 09:59 36.96429 127.73805 23605 ft 402 kts 303°
2026-04-25 10:00 36.98013 127.70988 22978 ft 400 kts 303°
2026-04-25 10:00 36.99609 127.68153 22356 ft 397 kts 303°
2026-04-25 10:00 37.01212 127.65369 21752 ft 394 kts 309°
2026-04-25 10:00 37.03264 127.63123 21158 ft 393 kts 328°
2026-04-25 10:01 37.05676 127.61543 20576 ft 391 kts 333°
2026-04-25 10:01 37.08147 127.60132 19989 ft 389 kts 335°
2026-04-25 10:01 37.10611 127.58763 19367 ft 387 kts 335°
2026-04-25 10:01 37.13063 127.57382 18719 ft 386 kts 330°
2026-04-25 10:02 37.15125 127.55297 18068 ft 380 kts 305°
2026-04-25 10:02 37.16229 127.52349 17355 ft 374 kts 279°
2026-04-25 10:02 37.16248 127.49142 16662 ft 368 kts 261°
2026-04-25 10:02 37.15820 127.45991 16043 ft 365 kts 258°
2026-04-25 10:03 37.15361 127.42881 15445 ft 361 kts 263°
2026-04-25 10:03 37.15529 127.39767 14855 ft 359 kts 285°
2026-04-25 10:03 37.16630 127.36982 14302 ft 357 kts 308°
2026-04-25 10:03 37.18452 127.34936 13710 ft 350 kts 330°
2026-04-25 10:04 37.20694 127.33909 13079 ft 340 kts 352°
2026-04-25 10:04 37.23000 127.33989 12464 ft 326 kts
2026-04-25 10:04 37.25209 127.34070 11839 ft 312 kts 347°
2026-04-25 10:04 37.27129 127.32981 11245 ft 300 kts 319°
2026-04-25 10:05 37.28395 127.30969 10654 ft 293 kts 292°
2026-04-25 10:05 37.28793 127.28494 10125 ft 293 kts 265°
2026-04-25 10:05 37.28282 127.26050 9593 ft 288 kts 244°
2026-04-25 10:05 37.27430 127.23843 9360 ft 272 kts 244°
2026-04-25 10:06 37.26692 127.21692 9170 ft 265 kts 248°
2026-04-25 10:06 37.26075 127.19508 8959 ft 268 kts 251°
2026-04-25 10:06 37.25805 127.17189 8752 ft 272 kts 275°
2026-04-25 10:06 37.26440 127.14954 8511 ft 279 kts 304°
2026-04-25 10:07 37.27779 127.13184 8157 ft 281 kts 317°
2026-04-25 10:07 37.29248 127.11579 7740 ft 280 kts 317°
2026-04-25 10:07 37.30704 127.09966 7249 ft 276 kts 316°
2026-04-25 10:07 37.32107 127.08372 6752 ft 268 kts 316°
2026-04-25 10:08 37.33470 127.06811 6229 ft 264 kts 316°
2026-04-25 10:08 37.34811 127.05263 5643 ft 259 kts 314°
2026-04-25 10:08 37.36069 127.03670 5067 ft 253 kts 311°
2026-04-25 10:08 37.37271 127.02086 4620 ft 248 kts 312°
2026-04-25 10:09 37.38474 127.00557 4164 ft 245 kts 313°
2026-04-25 10:09 37.39683 126.99075 3723 ft 240 kts 313°
2026-04-25 10:09 37.40841 126.97626 3339 ft 229 kts 313°
2026-04-25 10:09 37.41927 126.96265 3253 ft 211 kts 312°
2026-04-25 10:10 37.42957 126.94972 3199 ft 209 kts 312°
2026-04-25 10:10 37.43981 126.93679 3066 ft 207 kts 313°
2026-04-25 10:10 37.45004 126.92407 2815 ft 202 kts 311°
2026-04-25 10:10 37.45960 126.91196 2506 ft 188 kts 313°
2026-04-25 10:11 37.46864 126.90074 2268 ft 175 kts 313°
2026-04-25 10:11 37.47416 126.89384 2150 ft 163 kts 312°
2026-04-25 10:11 37.48259 126.88313 1863 ft 151 kts 313°
2026-04-25 10:11 37.48983 126.87406 1636 ft 144 kts 313°
2026-04-25 10:12 37.49679 126.86538 1442 ft 139 kts 312°
2026-04-25 10:12 37.50361 126.85684 1326 ft 140 kts 314°
2026-04-25 10:12 37.51710 126.83943 1036 ft 142 kts 313°
2026-04-25 10:13 37.52419 126.83066 837 ft 145 kts 313°
2026-04-25 10:13 37.53150 126.82165 595 ft 148 kts 313°
2026-04-25 10:13 37.53876 126.81240 368 ft 148 kts 313°
2026-04-25 10:13 37.54611 126.80333 139 ft 147 kts 313°
2026-04-25 10:14 37.55309 126.79467 50 ft 133 kts 314°
2026-04-25 10:14 37.55830 126.78810 46 ft 71 kts 316°
2026-04-25 10:14 37.56105 126.78478 47 ft 47 kts 323°
2026-04-25 10:14 37.56347 126.78346 47 ft 26 kts 349°
2026-04-25 10:15 37.56502 126.78373 48 ft 21 kts 38°
2026-04-25 10:15 37.56607 126.78503 49 ft 22 kts 45°
2026-04-25 10:15 37.56665 126.78606 49 ft 13 kts 88°
2026-04-25 10:15 37.56614 126.78699 49 ft 14 kts 135°
2026-04-25 10:16 37.56544 126.78785 49 ft 14 kts 134°
2026-04-25 10:16 37.56472 126.78879 49 ft 15 kts 134°
2026-04-25 10:16 37.56394 126.78977 49 ft 16 kts 136°
2026-04-25 10:16 37.56313 126.79079 49 ft 17 kts 134°
2026-04-25 10:17 37.56229 126.79186 48 ft 18 kts 135°
2026-04-25 10:17 37.56140 126.79296 49 ft 18 kts 135°
2026-04-25 10:17 37.56049 126.79407 49 ft 18 kts 135°
2026-04-25 10:17 37.55961 126.79526 48 ft 19 kts 121°
2026-04-25 10:18 37.55934 126.79686 50 ft 19 kts 97°
2026-04-25 10:18 37.55914 126.79849 50 ft 16 kts 97°
2026-04-25 10:18 37.55906 126.79950 50 ft 9 kts 80°
2026-04-25 10:18 37.55944 126.80011 50 ft 8 kts 45°
2026-04-25 10:19 37.55973 126.80048 50 ft 1 kts 47°